Al Hoceima, Morocco

11:37 AM WET on February 24, 2017 (GMT +0000)
Cherif Al Idrissi

Weather History for GMTA - September, 2013

Change the Weather History Date:

Monday, September 30, 2013

  Actual Average Record
Temperature  
Mean Temperature 73 °F -  
Max Temperature 82 °F 71 °F 84 °F (2016)
Min Temperature 64 °F 59 °F 60 °F (2007)
Cooling Degree Days 8    
Growing Degree Days 23 (Base 50)    
Moisture  
Dew Point 69 °F    
Average Humidity 78    
Maximum Humidity 89    
Minimum Humidity 66    
Precipitation  
Precipitation 0.00 in - - ()
Sea Level Pressure  
Sea Level Pressure 29.98 in    
Wind  
Wind Speed 4 mph ()    
Max Wind Speed 12 mph    
Max Gust Speed -    
Visibility 7.7 miles    
Events      
Averages and records for this station are not official NWS values.
T = Trace of Precipitation, MM = Missing Value Source: Averaged Metar Reports

Daily Weather History Graph

Daily Weather History Graph

Search for Another Location

Airport or City:

Trip Planner

Search our weather history database for the weather conditions in past years. The results will help you decide how hot, cold, wet, or windy it might be!

Date:

Astronomy

Sep. 30, 2013 Rise Set
Actual Time 7:09 AM WEST 7:00 PM WEST
Civil Twilight 6:44 AM WEST 7:25 PM WEST
Nautical Twilight 6:14 AM WEST 7:55 PM WEST
Astronomical Twilight 5:45 AM WEST 8:24 PM WEST
Moon 2:41 AM WEST (9/30) 4:15 PM WEST (9/30)
Length of Visible Light 12h 41m
Length of Day
11h 51m
Waning Crescent, 21% of the Moon is Illuminated
Sep 30
Waning Crescent
Oct 5
New
Oct 12
First Quarter
Oct 19
Full
Oct 27
Last Quarter

Hourly Weather History & Observations

Time (WEST) Temp. Heat Index Dew Point Humidity Pressure Visibility Wind Dir Wind Speed Gust Speed Precip Events Conditions
12:00 AM 69.8 °F - 66.2 °F 88% 30.01 in - SSW 2.3 mph - N/A   Clear
1:00 AM 69 °F - 66 °F 88% 30.02 in 9 mi South 2.3 mph - -   Clear
1:00 AM 69.8 °F - 66.2 °F 88% 30.01 in - South 2.3 mph - N/A   Clear
7:00 AM 65 °F - 62 °F 89% 29.99 in 9 mi SSW 2.3 mph - -  
7:00 AM 66.2 °F - 62.6 °F 88% 29.98 in - SSW 2.3 mph - N/A   Clear
9:00 AM 75.2 °F - 68.0 °F 78% 29.98 in - East 4.6 mph - N/A   Clear
10:00 AM 80 °F - 71 °F 66% 29.99 in 9 mi SE 2.3 mph - -  
10:00 AM 80.6 °F 84.6 °F 71.6 °F 74% 29.98 in - SE 2.3 mph - N/A   Clear
11:00 AM 78.8 °F - 69.8 °F 74% 29.98 in - NNE 6.9 mph - N/A   Clear
12:00 PM 78.8 °F - 69.8 °F 74% 29.98 in - NNE 11.5 mph - N/A   Clear
1:00 PM 79 °F - 71 °F 72% 29.98 in 9 mi North 11.5 mph - -  
1:00 PM 78.8 °F - 71.6 °F 78% 29.98 in - North 11.5 mph - N/A   Clear
2:00 PM 78.8 °F - 69.8 °F 74% 29.98 in - NNE 11.5 mph - N/A   Clear
3:00 PM 78.8 °F - 71.6 °F 78% 29.95 in - NNE 4.6 mph - N/A   Clear
4:00 PM 80 °F - 71 °F 69% 29.96 in 6 mi NE 6.9 mph - -  
4:00 PM 80.6 °F 84.6 °F 71.6 °F 74% 29.95 in - NE 6.9 mph - N/A   Clear
5:00 PM 78.8 °F - 69.8 °F 74% 29.95 in - NE 4.6 mph - N/A   Clear
6:00 PM 78.8 °F - 69.8 °F 74% 29.95 in - NNE 4.6 mph - N/A   Clear
7:00 PM 78 °F - 70 °F 69% 29.97 in 6 mi East 4.6 mph - -  
7:00 PM 77.0 °F - 69.8 °F 78% 29.95 in - East 4.6 mph - N/A   Clear
8:00 PM 77.0 °F - 69.8 °F 78% 29.98 in - ESE 4.6 mph - N/A   Clear
9:00 PM 75.2 °F - 68.0 °F 78% 29.98 in - Calm Calm - N/A   Clear
10:00 PM 74 °F - 68 °F 76% 30.00 in 6 mi SSW 2.3 mph - -  
10:00 PM 73.4 °F - 68.0 °F 83% 29.98 in - SSW 2.3 mph - N/A   Clear